Location: Harwich
(41.7160°N, 69.9939°W)
Time: 05:19:45
(UTC+02:00)

NANOSAT C BR1 - Visible Passes

Search period start: 19 September 2024 00:00
Search period end: 29 September 2024 00:00
Orbit: 543 x 550 km, 98.1° (Epoch: 18 September)

Date Brightness Start Highest point End Pass type
(mag) Time Alt. Az. Time Alt. Az. Time Alt. Az.
19 Sep ? 09:54:30 10° ENE 09:55:42 11° E 09:56:55 10° ESE visible
19 Sep ? 11:26:47 10° N 11:30:38 53° WNW 11:34:27 10° SSW visible
20 Sep ? 11:21:20 10° N 11:25:14 63° WNW 11:29:06 10° SSW visible
21 Sep ? 11:15:51 10° N 11:19:47 74° WNW 11:23:41 10° SSW visible
22 Sep ? 11:10:21 10° NNE 11:14:17 87° WNW 11:18:12 10° SSW visible
23 Sep ? 11:04:48 10° NNE 11:08:45 79° ESE 11:12:39 10° S visible
24 Sep ? 10:59:14 10° NNE 11:03:10 67° ESE 11:07:02 10° S visible
25 Sep ? 10:53:39 10° NNE 10:57:31 56° E 11:01:22 10° S visible
26 Sep ? 10:48:02 10° NNE 10:51:51 47° E 10:55:37 10° S visible
27 Sep ? 10:42:24 10° NNE 10:46:07 40° E 10:49:47 10° S visible
28 Sep ? 10:36:44 10° NNE 10:40:20 34° E 10:43:54 10° SSE visible
